Find Starlink 3715

NORAD ID: 52127 Int'l Des: 2022-029 Owner: SPXS Country: US Constellation: starlink operational
LEOCIRCULAR

リアルタイム位置

3D地球を読み込み中...

Starlink 3715について

説明を読み込み中...

次回通過

Passes for default location (London). Set your location on the main map for personalized predictions.

高度履歴

Loading altitude history...

軌道要素

1 52127U 22029AR 26105.91308270 -.00000376 00000-0 -55353-5 0 9990
2 52127 53.2173 262.0188 0001241 93.2838 266.8296 15.08839980226547
Epoch: Apr 15, 2026 • Age: 14 hours

現在のステータス

高度 554.9 km
速度 7.58 km/s
衛星直下点 -43.21°S, 103.84°E
打ち上げ日 Mar 19, 2022
運用期間 4 years
タイプ internet

技術仕様

分類 Payload
質量 297.00 kg
乾燥質量 275.00 kg
総質量 297.00 kg
長さ 0.20 m
直径 2.80 m
スパン 9.00 m
形状 Box + pan
製造者 SPXS
バスタイプ Starlink
フェーズステータス In Orbit
所有者/国 SPXS/US

Most Searched